This demonstration page uses our WeatherBlox Daily Observations layout. Learn more.

Left ArrowRight Arrow

Hourly Observations for February 11, 2020

Temp ( °F °C ) Dew Point ( °F °C ) Humidity (%) Winds ( mph kmh ) Pressure ( in mb ) Visibility ( mi km ) Precip ( " mm )
12:53 am 00:53 Cloudy with Mist and Fog 36 2.2 33 0.6 89 89 NNW 6 9 30.11 1020 6 10 N/A
1:53 am 01:53 Cloudy with Mist and Fog 36 2.2 33 0.6 89 89 NW 5 7 30.13 1020 6 10 N/A
2:06 am 02:06 Cloudy with Mist and Fog 36 2.2 33 0.6 89 89 WNW 6 9 30.15 1021 6 10 N/A
2:53 am 02:53 Cloudy 36 2.2 33 0.6 89 89 NNW 7 11 30.11 1020 7 11 N/A
3:39 am 03:39 Cloudy 35 1.7 32 undefined 89 89 N N/A 30.13 1020 7 11 N/A
3:53 am 03:53 Cloudy 35 1.7 32 undefined 89 89 NNE 3 6 30.09 1019 7 11 N/A
4:53 am 04:53 Cloudy 35 1.7 32 undefined 89 89 NNW 5 7 30.10 1019 7 11 N/A
5:53 am 05:53 Cloudy 35 1.7 32 undefined 89 89 N N/A 30.12 1020 7 11 N/A
6:53 am 06:53 Cloudy 35 1.7 31 -0.6 85 85 N 3 6 30.11 1020 7 11 N/A
7:53 am 07:53 Cloudy 35 1.7 31 -0.6 85 85 N N/A 30.11 1020 7 11 0.01 0.25
8:53 am 08:53 Cloudy with Mist and Fog 35 1.7 31 -0.6 85 85 N 6 9 30.11 1020 6 10 N/A
9:53 am 09:53 Cloudy with Light Snow 36 2.2 31 -0.6 82 82 NE 3 6 30.11 1020 4 6 0.00 0.00
10:39 am 10:39 Cloudy with Haze 36 2.2 31 -0.6 82 82 WNW 5 7 30.14 1021 5 8 0.00 0.00
10:53 am 10:53 Cloudy with Haze 37 2.8 32 undefined 82 82 NW 7 11 30.13 1020 5 8 0.00 0.00
11:04 am 11:04 Cloudy with Haze 37 2.8 31 -0.6 79 79 NW 6 9 30.14 1021 5 8 N/A
11:18 am 11:18 Cloudy with Haze 38 3.3 32 undefined 79 79 NW 6 9 30.14 1020 6 10 N/A
11:32 am 11:32 Cloudy with Haze 37 2.8 31 -0.6 79 79 WNW 5 7 30.14 1021 6 10 N/A
11:53 am 11:53 Cloudy with Haze 38 3.3 32 undefined 79 79 WNW 7 11 30.12 1020 6 10 N/A
12:53 pm 12:53 Cloudy 40 4.4 31 -0.6 70 70 NW 8 13 30.11 1020 7 11 N/A
1:53 pm 13:53 Cloudy 41 5 31 -0.6 67 67 W 8 13 30.10 1019 8 13 N/A
2:31 pm 14:31 Cloudy 41 5 30 -1.1 65 65 W 8 13 30.12 1020 9 14 N/A
2:53 pm 14:53 Cloudy 41 5 30 -1.1 65 65 WNW 10 17 30.11 1020 10 16 N/A
3:53 pm 15:53 Cloudy 41 5 30 -1.1 65 65 W 8 13 30.12 1020 10 16 N/A
4:53 pm 16:53 Mostly Sunny 41 5 28 -2.2 60 60 WNW 10 17 30.13 1020 10 16 N/A
5:53 pm 17:53 Mostly Cloudy 38 3.3 27 -2.8 65 65 WNW 8 13 30.14 1021 10 16 N/A
6:53 pm 18:53 Mostly Cloudy 38 3.3 28 -2.2 68 68 W 5 7 30.18 1022 10 16 N/A
7:53 pm 19:53 Mostly Cloudy 38 3.3 26 -3.3 62 62 W 6 9 30.22 1023 10 16 N/A
8:53 pm 20:53 Partly Cloudy 37 2.8 27 -2.8 67 67 W 5 7 30.23 1024 10 16 N/A
9:53 pm 21:53 Clear 34 1.1 29 -1.7 82 82 N N/A 30.23 1024 10 16 N/A
10:53 pm 22:53 Clear 33 0.6 28 -2.2 82 82 N N/A 30.24 1024 10 16 N/A
11:53 pm 23:53 Clear 32 undefined 30 -1.1 92 92 N N/A 30.24 1024 7 11 N/A

Powered by AerisWeather